OE3APM-13 Weather Reports


Display with metric or nautical units.
time (UTC)temp
F
wind
direction
speed
MPH
gust
MPH
rain 1hr
in
rain 24hr
in
rain mn
in
humidity
%
barometer
mb
20260510130532 71 165 5.0 11.0 0.00 0.00 0.00 45 1011.3
20260510130029 71 94 4.0 11.0 0.00 0.00 0.00 47 1011.4
20260510125530 71 259 5.0 11.0 0.00 0.00 0.00 45 1011.4
20260510125029 70 84 7.0 16.0 0.00 0.00 0.00 47 1011.5
20260510124529 70 147 7.0 16.0 0.00 0.00 0.00 45 1011.6
20260510124025 71 69 6.0 13.0 0.00 0.00 0.00 46 1011.6
20260510123526 70 164 5.0 14.0 0.00 0.00 0.00 47 1011.7
20260510123025 70 110 7.0 19.0 0.00 0.00 0.00 49 1011.7
20260510122526 70 322 7.0 19.0 0.00 0.00 0.00 49 1011.8
20260510122027 70 117 5.0 13.0 0.00 0.00 0.00 48 1011.9
20260510121527 70 173 5.0 12.0 0.00 0.00 0.00 51 1012.1
20260510121024 69 141 5.0 15.0 0.00 0.00 0.00 48 1012.1
20260510120527 69 141 5.0 15.0 0.00 0.00 0.00 48 1012.2
20260510120030 69 78 7.0 17.0 0.00 0.00 0.00 48 1012.3
20260510115515 68 152 8.0 17.0 0.00 0.00 0.00 49 1012.5
20260510115005 68 59 7.0 13.0 0.00 0.00 0.00 47 1012.4
20260510114503 68 77 6.0 14.0 0.00 0.00 0.00 47 1012.4
20260510114004 69 74 6.0 14.0 0.00 0.00 0.00 46 1012.5
20260510113503 69 28 7.0 15.0 0.00 0.00 0.00 46 1012.6
20260510113002 68 131 7.0 15.0 0.00 0.00 0.00 48 1012.6
20260510112503 68 169 7.0 14.0 0.00 0.00 0.00 50 1012.8
20260510112005 68 119 7.0 15.0 0.00 0.00 0.00 48 1012.9
20260510111504 68 54 7.0 16.0 0.00 0.00 0.00 47 1012.8
20260510111005 69 59 7.0 16.0 0.00 0.00 0.00 46 1012.9
20260510110500 69 115 6.0 12.0 0.00 0.00 0.00 48 1013.0
20260510105953 68 58 7.0 12.0 0.00 0.00 0.00 47 1013.0
20260510105454 69 125 6.0 14.0 0.00 0.00 0.00 47 1013.0
20260510104953 68 123 5.0 14.0 0.00 0.00 0.00 47 1013.1
20260510104453 68 135 6.0 13.0 0.00 0.00 0.00 48 1013.3
20260510103954 67 69 6.0 13.0 0.00 0.00 0.00 48 1013.3
20260510103454 67 38 5.0 11.0 0.00 0.00 0.00 51 1013.4
20260510102953 67 111 6.0 16.0 0.00 0.00 0.00 48 1013.5
20260510102453 66 89 7.0 16.0 0.00 0.00 0.00 50 1013.6
20260510101949 66 138 5.0 14.0 0.00 0.00 0.00 48 1013.7
20260510101452 66 95 5.0 12.0 0.00 0.00 0.00 48 1013.7
20260510100946 66 163 6.0 16.0 0.00 0.00 0.00 48 1013.8
20260510100448 66 92 5.0 16.0 0.00 0.00 0.00 47 1013.8
20260510095943 67 148 5.0 11.0 0.00 0.00 0.00 49 1013.9
20260510095442 66 83 6.0 15.0 0.00 0.00 0.00 52 1013.8
20260510094934 65 120 5.0 15.0 0.00 0.00 0.00 49 1013.7
20260510094433 65 82 5.0 12.0 0.00 0.00 0.00 52 1013.8
20260510093933 65 123 6.0 15.0 0.00 0.00 0.00 51 1013.6
20260510093432 65 119 7.0 17.0 0.00 0.00 0.00 51 1013.7
20260510092931 65 139 7.0 17.0 0.00 0.00 0.00 52 1013.9
20260510092432 64 92 7.0 13.0 0.00 0.00 0.00 53 1013.9
20260510091931 64 90 6.0 14.0 0.00 0.00 0.00 52 1014.1
20260510091432 64 180 6.0 14.0 0.00 0.00 0.00 52 1014.1
20260510090931 63 31 5.0 14.0 0.00 0.00 0.00 56 1014.2
20260510090432 63 97 5.0 14.0 0.00 0.00 0.00 58 1014.3
20260510085932 63 57 5.0 13.0 0.00 0.00 0.00 53 1014.3
20260510085430 63 15 6.0 14.0 0.00 0.00 0.00 53 1014.4
20260510084931 63 128 7.0 14.0 0.00 0.00 0.00 53 1014.5
20260510084430 63 106 7.0 14.0 0.00 0.00 0.00 54 1014.5
20260510083931 62 142 5.0 11.0 0.00 0.00 0.00 56 1014.5
20260510083428 62 80 5.0 14.0 0.00 0.00 0.00 58 1014.7
20260510082930 62 113 4.0 14.0 0.00 0.00 0.00 56 1014.7
20260510082429 61 62 5.0 15.0 0.00 0.00 0.00 55 1014.7
20260510081922 61 88 5.0 15.0 0.00 0.00 0.00 57 1014.7
20260510081412 61 35 5.0 10.0 0.00 0.00 0.00 59 1014.7
20260510080910 60 131 4.0 10.0 0.00 0.00 0.00 60 1014.7
20260510080405 60 98 6.0 16.0 0.00 0.00 0.00 57 1014.8
20260510075852 60 109 6.0 16.0 0.00 0.00 0.00 55 1014.9
20260510075348 60 56 4.0 11.0 0.00 0.00 0.00 60 1015.0
20260510074842 59 145 5.0 11.0 0.00 0.00 0.00 57 1015.0
20260510074341 59 32 5.0 11.0 0.00 0.00 0.00 57 1015.0
20260510073842 59 32 6.0 14.0 0.00 0.00 0.00 57 1015.0
20260510073342 58 79 6.0 14.0 0.00 0.00 0.00 59 1015.0
20260510072840 58 149 6.0 13.0 0.00 0.00 0.00 59 1015.0
20260510072338 58 60 5.0 10.0 0.00 0.00 0.00 60 1015.2
20260510071837 57 100 4.0 8.0 0.00 0.00 0.00 61 1015.2
20260510071336 57 95 5.0 12.0 0.00 0.00 0.00 62 1015.2
20260510070838 56 131 5.0 12.0 0.00 0.00 0.00 60 1015.2
20260510070337 56 84 4.0 11.0 0.00 0.00 0.00 63 1015.2
20260510065834 56 171 3.0 8.0 0.00 0.00 0.00 64 1015.4
20260510065334 55 78 3.0 8.0 0.00 0.00 0.00 64 1015.4
20260510064840 55 169 3.0 7.0 0.00 0.00 0.00 64 1015.6
20260510064333 54 51 4.0 12.0 0.00 0.00 0.00 65 1015.6
20260510063831 54 130 5.0 12.0 0.00 0.00 0.00 65 1015.6
20260510063330 54 81 4.0 10.0 0.00 0.00 0.00 66 1015.8
20260510062829 53 92 3.0 8.0 0.00 0.00 0.00 66 1015.9
20260510062327 53 85 3.0 7.0 0.00 0.00 0.00 68 1015.8
20260510061826 53 68 3.0 8.0 0.00 0.00 0.00 69 1015.8
20260510061326 52 98 4.0 8.0 0.00 0.00 0.00 69 1015.9
20260510060826 52 108 5.0 8.0 0.00 0.00 0.00 69 1015.9
20260510060326 52 71 3.0 8.0 0.00 0.00 0.00 70 1016.0
20260510055824 51 104 3.0 7.0 0.00 0.00 0.00 72 1016.0
20260510055321 51 132 3.0 9.0 0.00 0.00 0.00 72 1016.1
20260510054820 50 123 4.0 11.0 0.00 0.00 0.00 73 1016.1
20260510054319 50 101 4.0 11.0 0.00 0.00 0.00 74 1016.1
20260510053818 49 98 5.0 11.0 0.00 0.00 0.00 74 1016.1
20260510053319 49 107 4.0 9.0 0.00 0.00 0.00 75 1016.1
20260510052818 49 129 3.0 9.0 0.00 0.00 0.00 77 1016.0
20260510052315 48 82 3.0 8.0 0.00 0.00 0.00 78 1016.1
20260510051816 47 103 4.0 8.0 0.00 0.00 0.00 79 1016.0
20260510051316 47 61 3.0 8.0 0.00 0.00 0.00 80 1016.0
20260510050812 46 90 2.0 8.0 0.00 0.00 0.00 81 1016.0
20260510050313 45 59 2.0 6.0 0.00 0.00 0.00 83 1016.0
20260510045809 45 24 2.0 6.0 0.00 0.00 0.00 83 1016.0
20260510045307 44 73 2.0 5.0 0.00 0.00 0.00 83 1015.9
20260510044808 44 46 2.0 5.0 0.00 0.00 0.00 84 1016.0
20260510044308 44 42 2.0 4.0 0.00 0.00 0.00 84 1016.0
20260510043808 43 24 2.0 4.0 0.00 0.00 0.00 85 1016.1
20260510043307 43 17 2.0 3.0 0.00 0.00 0.00 86 1016.1
20260510042807 43 9 2.0 3.0 0.00 0.00 0.00 86 1016.2
20260510042308 43 26 2.0 4.0 0.00 0.00 0.00 86 1016.1
20260510041807 42 5 2.0 4.0 0.00 0.00 0.00 86 1016.1
20260510041303 42 5 2.0 4.0 0.00 0.00 0.00 85 1016.0
20260510040805 42 15 2.0 4.0 0.00 0.00 0.00 85 1016.0
20260510040304 42 22 2.0 4.0 0.00 0.00 0.00 85 1016.0
20260510035806 42 44 2.0 4.0 0.00 0.00 0.00 86 1016.0
20260510035306 42 24 2.0 4.0 0.00 0.00 0.00 85 1016.0
20260510034801 42 17 2.0 3.0 0.00 0.00 0.00 86 1016.0
20260510034305 42 34 1.0 6.0 0.00 0.00 0.00 86 1016.0
20260510033803 42 21 2.0 6.0 0.00 0.00 0.00 86 1016.0
20260510033301 41 53 1.0 5.0 0.00 0.00 0.00 86 1016.1
20260510032758 41 35 1.0 3.0 0.00 0.00 0.00 86 1016.1
20260510032252 41 63 1.0 3.0 0.00 0.00 0.00 85 1016.1
20260510031746 41 78 1.0 3.0 0.00 0.00 0.00 85 1016.2
20260510031245 41 68 2.0 3.0 0.00 0.00 0.00 84 1016.3
20260510030738 42 46 2.0 3.0 0.00 0.00 0.00 84 1016.3
20260510030232 42 63 2.0 3.0 0.00 0.00 0.00 84 1016.3
20260510025727 42 53 1.0 3.0 0.00 0.00 0.00 84 1016.5
20260510025222 42 67 1.0 4.0 0.00 0.00 0.00 84 1016.5
20260510024720 42 65 0.0 4.0 0.00 0.00 0.00 84 1016.5
20260510024219 42 82 0.0 0.0 0.00 0.00 0.00 84 1016.6
20260510023718 42 107 0.0 3.0 0.00 0.00 0.00 84 1016.6
20260510023216 42 107 1.0 3.0 0.00 0.00 0.00 84 1016.7
20260510022712 42 52 1.0 2.0 0.00 0.00 0.00 84 1016.7
20260510022212 42 46 2.0 6.0 0.00 0.00 0.00 83 1016.7
20260510021712 42 46 2.0 6.0 0.00 0.00 0.00 83 1016.6
20260510021211 42 98 2.0 3.0 0.00 0.00 0.00 83 1016.5
20260510020712 42 61 1.0 3.0 0.00 0.00 0.00 83 1016.5
20260510020210 42 91 1.0 3.0 0.00 0.00 0.00 82 1016.5
20260510015708 42 91 1.0 3.0 0.00 0.00 0.00 82 1016.5
20260510015209 42 73 1.0 4.0 0.00 0.00 0.00 82 1016.3
20260510014708 42 79 2.0 4.0 0.00 0.00 0.00 83 1016.3
20260510014206 42 40 2.0 4.0 0.00 0.00 0.00 82 1016.2
20260510013706 43 38 3.0 4.0 0.00 0.00 0.00 81 1016.2
20260510013203 43 60 1.0 4.0 0.00 0.00 0.00 81 1016.3
20260510012704 43 69 0.0 3.0 0.00 0.00 0.00 79 1016.5
20260510012202 44 69 0.0 1.0 0.00 0.00 0.00 79 1016.6
20260510011704 44 69 1.0 2.0 0.00 0.00 0.00 78 1016.6
20260510011153 44 69 2.0 3.0 0.00 0.00 0.00 78 1016.6
20260510010646 44 69 2.0 3.0 0.00 0.00 0.00 78 1016.7
20260510010146 45 70 1.0 2.0 0.00 0.00 0.00 78 1016.7
20260510005646 45 70 1.0 3.0 0.00 0.00 0.00 77 1016.8
20260510005145 45 70 2.0 3.0 0.00 0.00 0.00 78 1017.0
20260510004646 45 82 2.0 3.0 0.00 0.00 0.00 78 1017.0
20260510004145 45 84 1.0 3.0 0.00 0.00 0.00 78 1017.0
20260510003647 45 88 1.0 5.0 0.00 0.00 0.00 78 1017.0
20260510003146 45 89 2.0 6.0 0.00 0.00 0.00 78 1017.1
20260510002644 46 104 1.0 6.0 0.00 0.00 0.00 77 1017.0
20260510002143 46 125 1.0 3.0 0.00 0.00 0.00 77 1017.1
20260510001639 46 100 1.0 3.0 0.00 0.00 0.00 77 1017.1
20260510001140 46 85 2.0 5.0 0.00 0.00 0.00 76 1017.1
20260510000639 46 85 2.0 6.0 0.00 0.00 0.00 76 1017.2
20260510000137 46 78 1.0 6.0 0.00 0.00 0.00 76 1017.4
20260509235637 47 75 2.0 5.0 0.00 0.00 0.00 75 1017.5
20260509235136 47 71 3.0 5.0 0.00 0.00 0.00 76 1017.5
20260509234635 47 53 2.0 6.0 0.00 0.00 0.00 75 1017.6
20260509234134 47 101 2.0 6.0 0.00 0.00 0.00 75 1017.6
20260509233638 47 92 2.0 5.0 0.00 0.00 0.00 76 1017.7
20260509233133 47 55 2.0 3.0 0.00 0.00 0.00 74 1017.7
20260509232625 48 92 1.0 5.0 0.00 0.00 0.00 74 1017.9
20260509232124 48 118 1.0 5.0 0.00 0.00 0.00 73 1018.0
20260509231613 48 84 0.0 2.0 0.00 0.00 0.00 73 1018.0
20260509231113 48 84 2.0 7.0 0.00 0.00 0.00 73 1017.9
20260509230613 48 120 2.0 7.0 0.00 0.00 0.00 73 1018.0
20260509230113 48 107 2.0 8.0 0.00 0.00 0.00 73 1017.9
20260509225614 49 102 2.0 8.0 0.00 0.00 0.00 72 1018.0
20260509225115 49 123 2.0 7.0 0.00 0.00 0.00 72 1018.1
20260509224628 49 129 1.0 7.0 0.00 0.00 0.00 72 1018.1
20260509224112 49 128 2.0 7.0 0.00 0.00 0.00 71 1018.1
20260509223611 49 114 3.0 7.0 0.00 0.00 0.00 71 1018.1
20260509223113 49 76 2.0 8.0 0.00 0.00 0.00 71 1018.2
20260509222608 49 129 2.0 8.0 0.00 0.00 0.00 71 1018.2
20260509222109 50 88 3.0 7.0 0.00 0.00 0.00 71 1018.2
20260509221608 50 94 3.0 8.0 0.00 0.00 0.00 71 1018.2
20260509221107 50 76 3.0 9.0 0.00 0.00 0.00 71 1018.2
20260509220606 50 92 3.0 9.0 0.00 0.00 0.00 71 1018.4
20260509220108 50 65 3.0 7.0 0.00 0.00 0.00 70 1018.5
20260509215602 51 126 4.0 11.0 0.00 0.00 0.00 70 1018.4
20260509215105 51 107 4.0 14.0 0.00 0.00 0.00 70 1018.4
20260509214603 51 103 4.0 14.0 0.00 0.00 0.00 69 1018.4
20260509214057 51 123 4.0 10.0 0.00 0.00 0.00 69 1018.4
20260509213545 51 104 4.0 11.0 0.00 0.00 0.00 70 1018.4
20260509213038 51 67 5.0 11.0 0.00 0.00 0.00 69 1018.2
20260509212531 52 103 4.0 9.0 0.00 0.00 0.00 69 1018.4
20260509212033 52 92 4.0 9.0 0.00 0.00 0.00 68 1018.4
20260509211540 52 104 4.0 9.0 0.00 0.00 0.00 68 1018.2
20260509211030 53 107 4.0 10.0 0.00 0.00 0.00 67 1018.2
20260509210530 53 110 4.0 10.0 0.00 0.00 0.00 67 1018.2
20260509210030 53 92 5.0 14.0 0.00 0.00 0.00 67 1018.1
20260509205531 53 69 4.0 14.0 0.00 0.00 0.00 67 1018.2
20260509205030 53 90 3.0 8.0 0.00 0.00 0.00 67 1018.2
20260509204533 54 128 4.0 9.0 0.00 0.00 0.00 66 1018.4
20260509204029 54 77 4.0 9.0 0.00 0.00 0.00 66 1018.2
20260509203530 54 50 4.0 11.0 0.00 0.00 0.00 66 1018.2
20260509203030 55 49 3.0 11.0 0.00 0.00 0.00 66 1018.2
20260509202531 55 90 3.0 10.0 0.00 0.00 0.00 65 1018.2
20260509202032 55 76 4.0 10.0 0.00 0.00 0.00 65 1018.1
20260509201530 55 45 3.0 8.0 0.00 0.00 0.00 65 1018.1
20260509201030 56 70 2.0 7.0 0.00 0.00 0.00 64 1018.1
20260509200531 56 96 2.0 7.0 0.00 0.00 0.00 64 1018.1
20260509200032 56 62 4.0 10.0 0.00 0.00 0.00 64 1018.0
20260509195531 56 44 4.0 10.0 0.00 0.00 0.00 63 1018.0
20260509195031 56 65 3.0 10.0 0.00 0.00 0.00 63 1018.0
20260509194533 57 48 3.0 7.0 0.00 0.00 0.00 64 1018.0
20260509194031 57 59 3.0 7.0 0.00 0.00 0.00 63 1018.0
20260509193530 57 44 3.0 7.0 0.00 0.00 0.00 62 1018.0
20260509193031 57 69 3.0 7.0 0.00 0.00 0.00 62 1017.9
20260509192530 57 76 3.0 8.0 0.00 0.00 0.00 62 1017.9
20260509192033 57 90 3.0 8.0 0.00 0.00 0.00 62 1017.9
20260509191532 58 68 3.0 8.0 0.00 0.00 0.00 62 1017.8
20260509191031 58 88 3.0 7.0 0.00 0.00 0.00 61 1017.8
20260509190530 58 33 3.0 8.0 0.00 0.00 0.00 61 1017.8
20260509190030 58 27 3.0 8.0 0.00 0.00 0.00 61 1017.7
20260509185530 58 60 4.0 10.0 0.00 0.00 0.00 61 1017.7
20260509185031 58 36 4.0 10.0 0.00 0.00 0.00 61 1017.7
20260509184531 58 26 3.0 5.0 0.00 0.00 0.00 60 1017.6
20260509184031 58 24 2.0 5.0 0.00 0.00 0.00 60 1017.6
20260509183530 59 46 2.0 7.0 0.00 0.00 0.00 60 1017.5
20260509183029 59 65 2.0 7.0 0.00 0.00 0.00 60 1017.4
20260509182534 59 80 2.0 5.0 0.00 0.00 0.00 60 1017.5
20260509182028 59 34 3.0 5.0 0.00 0.00 0.00 59 1017.4
20260509181509 60 66 3.0 7.0 0.00 0.00 0.00 58 1017.4
20260509181008 60 40 1.0 7.0 0.00 0.00 0.00 57 1017.3
20260509180510 60 37 1.0 4.0 0.00 0.00 0.00 58 1017.3
20260509180006 60 74 2.0 6.0 0.00 0.00 0.00 57 1017.2
20260509175506 60 102 2.0 6.0 0.00 0.00 0.00 57 1017.2
20260509175002 61 74 3.0 9.0 0.00 0.00 0.00 56 1017.2
20260509174502 61 83 4.0 10.0 0.00 0.00 0.00 55 1017.1
20260509174002 61 103 4.0 10.0 0.00 0.00 0.00 55 1017.1
20260509173501 62 80 4.0 11.0 0.00 0.00 0.00 55 1017.1
20260509173003 62 71 4.0 11.0 0.00 0.00 0.00 54 1017.1
20260509172504 62 53 3.0 10.0 0.00 0.00 0.00 55 1017.1
20260509172002 62 80 4.0 10.0 0.00 0.00 0.00 53 1017.0
20260509171504 63 63 3.0 10.0 0.00 0.00 0.00 53 1017.0
20260509171002 63 92 3.0 9.0 0.00 0.00 0.00 53 1017.0
20260509170501 63 55 3.0 9.0 0.00 0.00 0.00 52 1016.9
20260509170001 63 76 4.0 9.0 0.00 0.00 0.00 52 1017.0
20260509165500 63 65 5.0 10.0 0.00 0.00 0.00 52 1016.9
20260509165000 64 53 5.0 10.0 0.00 0.00 0.00 51 1016.9
20260509164502 64 11 5.0 9.0 0.00 0.00 0.00 50 1016.9
20260509164000 65 23 3.0 8.0 0.00 0.00 0.00 50 1016.9
20260509163502 65 80 2.0 5.0 0.00 0.00 0.00 49 1016.9
20260509163000 65 92 2.0 5.0 0.00 0.00 0.00 49 1016.9
20260509162501 65 80 3.0 7.0 0.00 0.00 0.00 48 1016.9
20260509161957 65 40 3.0 7.0 0.00 0.00 0.00 48 1016.9
20260509161503 66 92 3.0 5.0 0.00 0.00 0.00 48 1016.9
20260509160959 66 39 2.0 5.0 0.00 0.00 0.00 48 1017.0
20260509160458 66 109 2.0 6.0 0.00 0.00 0.00 48 1017.0
20260509155958 66 309 2.0 6.0 0.00 0.00 0.00 48 1017.0
20260509155458 66 102 3.0 9.0 0.00 0.00 0.00 49 1017.1
20260509155000 66 86 3.0 9.0 0.00 0.00 0.00 48 1017.1
20260509154456 66 42 3.0 8.0 0.00 0.00 0.00 48 1017.1
20260509153957 67 42 3.0 8.0 0.00 0.00 0.00 47 1017.2
20260509153456 67 46 4.0 10.0 0.00 0.00 0.00 47 1017.2
20260509152956 67 33 2.0 10.0 0.00 0.00 0.00 46 1017.2
20260509152456 68 130 0.0 3.0 0.00 0.00 0.00 45 1017.1
20260509151955 68 99 0.0 2.0 0.00 0.00 0.00 44 1017.1
20260509151455 67 51 1.0 3.0 0.00 0.00 0.00 42 1017.1
20260509150954 67 28 2.0 4.0 0.00 0.00 0.00 42 1017.1
20260509150456 67 24 2.0 4.0 0.00 0.00 0.00 44 1017.2
20260509145947 67 259 2.0 6.0 0.00 0.00 0.00 45 1017.2
20260509145444 66 13 3.0 6.0 0.00 0.00 0.00 44 1017.2
20260509144944 66 341 4.0 7.0 0.00 0.00 0.00 45 1017.2
20260509144444 65 0 4.0 7.0 0.00 0.00 0.00 44 1017.2
20260509143944 66 355 4.0 8.0 0.00 0.00 0.00 44 1017.2
20260509143443 67 12 5.0 8.0 0.00 0.00 0.00 43 1017.3
20260509142946 67 32 5.0 8.0 0.00 0.00 0.00 43 1017.3
20260509142444 67 47 5.0 11.0 0.00 0.00 0.00 43 1017.3
20260509141945 68 0 5.0 11.0 0.00 0.00 0.00 42 1017.3
20260509141444 68 5 5.0 10.0 0.00 0.00 0.00 42 1017.2
20260509140945 68 40 4.0 10.0 0.00 0.00 0.00 42 1017.2
20260509140445 68 5 3.0 8.0 0.00 0.00 0.00 42 1017.3
20260509135945 68 21 2.0 6.0 0.00 0.00 0.00 42 1017.3
20260509135444 67 42 3.0 5.0 0.00 0.00 0.00 42 1017.3
20260509134946 67 36 6.0 12.0 0.00 0.00 0.00 42 1017.3
20260509134445 67 329 7.0 12.0 0.00 0.00 0.00 41 1017.3
20260509133947 68 39 4.0 11.0 0.00 0.00 0.00 41 1017.3
20260509133445 68 355 4.0 11.0 0.00 0.00 0.00 44 1017.3
20260509132946 67 38 6.0 11.0 0.00 0.00 0.00 42 1017.3
20260509132443 67 43 4.0 11.0 0.00 0.00 0.00 42 1017.3
20260509131946 67 246 3.0 7.0 0.00 0.00 0.00 43 1017.3
20260509131444 67 326 6.0 11.0 0.00 0.00 0.00 43 1017.4
20260509130946 67 5 7.0 11.0 0.00 0.00 0.00 43 1017.4